LRFT Weather Reports


time (UTC)temp
F
wind
direction
speed
knots
gust
knots
rain 1hr
in
rain 24hr
in
rain mn
in
humidity
%
barometer
mb
20260510233359 54 2.6 0.0 0.00 0.00 0.00 94 1014.0
20260510231856 54 2.6 0.0 0.00 0.00 0.00 94 1014.0
20260510230359 54 2.6 0.0 0.00 0.00 0.00 94 1014.0
20260510224948 54 2.6 0.0 0.00 0.00 0.00 94 1014.0
20260510223400 54 2.6 0.0 0.00 0.00 0.00 94 1014.0
20260510221856 54 2.6 0.0 0.00 0.00 0.00 94 1014.0
20260510220439 54 2.6 0.0 0.00 0.00 0.00 94 1014.0
20260510214859 54 2.6 0.0 0.00 0.00 0.00 94 1014.0
20260510213359 54 2.6 0.0 0.00 0.00 0.00 94 1014.0
20260510211859 54 2.6 0.0 0.00 0.00 0.00 94 1014.0
20260510210359 54 2.6 0.0 0.00 0.00 0.00 94 1014.0
20260510204858 54 2.6 0.0 0.00 0.00 0.00 94 1014.0
20260510203356 54 2.6 0.0 0.00 0.00 0.00 94 1014.0
20260510201904 54 2.6 0.0 0.00 0.00 0.00 94 1014.0
20260510200400 54 2.6 0.0 0.00 0.00 0.00 94 1014.0
20260510194856 59 2.6 0.0 0.00 0.00 0.00 82 1014.0
20260510193400 59 2.6 0.0 0.00 0.00 0.00 82 1014.0
20260510191955 59 2.6 0.0 0.00 0.00 0.00 82 1014.0
20260510190400 59 2.6 0.0 0.00 0.00 0.00 82 1014.0
20260510184857 61 2.6 0.0 0.00 0.00 0.00 77 1014.0
20260510183359 61 2.6 0.0 0.00 0.00 0.00 77 1014.0
20260510181859 61 2.6 0.0 0.00 0.00 0.00 77 1014.0
20260510180400 61 2.6 0.0 0.00 0.00 0.00 77 1014.0
20260510174900 66 2.6 0.0 0.00 0.00 0.00 68 1014.0
20260510173359 66 2.6 0.0 0.00 0.00 0.00 68 1014.0
20260510171859 66 2.6 0.0 0.00 0.00 0.00 68 1014.0
20260510170359 66 2.6 0.0 0.00 0.00 0.00 68 1014.0
20260510164859 68 60 4.3 0.0 0.00 0.00 0.00 60 1014.0
20260510163359 68 60 4.3 0.0 0.00 0.00 0.00 60 1014.0
20260510161859 68 60 4.3 0.0 0.00 0.00 0.00 60 1014.0
20260510160359 68 60 4.3 0.0 0.00 0.00 0.00 60 1014.0
20260510154900 68 360 7.8 0.0 0.00 0.00 0.00 64 1014.0
20260510153402 68 360 7.8 0.0 0.00 0.00 0.00 64 1014.0
20260510151859 68 360 7.8 0.0 0.00 0.00 0.00 64 1014.0
20260510150359 68 360 7.8 0.0 0.00 0.00 0.00 64 1014.0
20260510144859 70 340 7.8 0.0 0.00 0.00 0.00 60 1014.0
20260510143359 70 340 7.8 0.0 0.00 0.00 0.00 60 1014.0
20260510141900 70 340 7.8 0.0 0.00 0.00 0.00 60 1014.0
20260510140400 70 340 7.8 0.0 0.00 0.00 0.00 60 1014.0
20260510134900 66 350 12.2 0.0 0.00 0.00 0.00 73 1015.0
20260510133359 66 350 12.2 0.0 0.00 0.00 0.00 73 1015.0
20260510131859 66 350 12.2 0.0 0.00 0.00 0.00 73 1015.0
20260510130408 66 350 12.2 0.0 0.00 0.00 0.00 73 1015.0
20260510124926 64 340 12.2 0.0 0.00 0.00 0.00 78 1015.0
20260510123359 64 340 12.2 0.0 0.00 0.00 0.00 78 1015.0
20260510121856 64 340 12.2 0.0 0.00 0.00 0.00 78 1015.0
20260510120503 64 340 12.2 0.0 0.00 0.00 0.00 78 1015.0
20260510114901 64 340 13.9 0.0 0.00 0.00 0.00 78 1015.0
20260510113359 64 340 13.9 0.0 0.00 0.00 0.00 78 1015.0
20260510111856 64 340 13.9 0.0 0.00 0.00 0.00 78 1015.0
20260510110356 64 340 13.9 0.0 0.00 0.00 0.00 78 1015.0
20260510104900 63 330 12.2 0.0 0.00 0.00 0.00 83 1015.0
20260510103400 63 330 12.2 0.0 0.00 0.00 0.00 83 1015.0
20260510101859 63 330 12.2 0.0 0.00 0.00 0.00 83 1015.0
20260510100407 63 330 12.2 0.0 0.00 0.00 0.00 83 1015.0
20260510094901 63 320 9.6 0.0 0.00 0.00 0.00 83 1015.0
20260510093400 63 320 9.6 0.0 0.00 0.00 0.00 83 1015.0
20260510091906 63 320 9.6 0.0 0.00 0.00 0.00 83 1015.0
20260510090400 63 320 9.6 0.0 0.00 0.00 0.00 83 1015.0
20260510084856 61 340 7.8 0.0 0.00 0.00 0.00 88 1015.0
20260510083359 61 340 7.8 0.0 0.00 0.00 0.00 88 1015.0
20260510081859 61 340 7.8 0.0 0.00 0.00 0.00 88 1015.0
20260510080359 61 340 7.8 0.0 0.00 0.00 0.00 88 1015.0
20260510074859 61 340 6.1 0.0 0.00 0.00 0.00 88 1015.0
20260510073409 61 340 6.1 0.0 0.00 0.00 0.00 88 1015.0
20260510071855 61 340 6.1 0.0 0.00 0.00 0.00 88 1015.0
20260510070401 61 340 6.1 0.0 0.00 0.00 0.00 88 1015.0
20260510064855 59 310 6.1 0.0 0.00 0.00 0.00 94 1015.0
20260510063359 59 310 6.1 0.0 0.00 0.00 0.00 94 1015.0
20260510061856 59 310 6.1 0.0 0.00 0.00 0.00 94 1015.0
20260510060359 59 310 6.1 0.0 0.00 0.00 0.00 94 1015.0
20260510054856 55 1.7 0.0 0.00 0.00 0.00 100 1015.0
20260510053407 55 1.7 0.0 0.00 0.00 0.00 100 1015.0
20260510051859 55 1.7 0.0 0.00 0.00 0.00 100 1015.0
20260510050359 55 1.7 0.0 0.00 0.00 0.00 100 1015.0
20260510044857 55 1.7 0.0 0.00 0.00 0.00 100 1014.0
20260510043359 55 1.7 0.0 0.00 0.00 0.00 100 1014.0
20260510041859 55 1.7 0.0 0.00 0.00 0.00 100 1014.0
20260510040359 55 1.7 0.0 0.00 0.00 0.00 100 1014.0
20260510034853 55 1.7 0.0 0.00 0.00 0.00 100 1014.0
20260510033405 55 1.7 0.0 0.00 0.00 0.00 100 1014.0
20260510031857 55 1.7 0.0 0.00 0.00 0.00 100 1014.0
20260510030400 55 1.7 0.0 0.00 0.00 0.00 100 1014.0
20260510024854 55 100 2.6 0.0 0.00 0.00 0.00 100 1014.0
20260510023401 55 100 2.6 0.0 0.00 0.00 0.00 100 1014.0
20260510021853 55 100 2.6 0.0 0.00 0.00 0.00 100 1014.0
20260510020359 55 100 2.6 0.0 0.00 0.00 0.00 100 1014.0
20260510014857 55 100 2.6 0.0 0.00 0.00 0.00 100 1014.0
20260510013359 0 0.0 0.0 0.00 0.00 0.00
20260510011856 0 0.0 0.0 0.00 0.00 0.00
20260510010400 0 0.0 0.0 0.00 0.00 0.00
20260510004856 55 100 2.6 0.0 0.00 0.00 0.00 100 1014.0
20260510003400 55 100 2.6 0.0 0.00 0.00 0.00 100 1014.0
20260510001857 55 100 2.6 0.0 0.00 0.00 0.00 100 1014.0
20260510000359 55 100 2.6 0.0 0.00 0.00 0.00 100 1014.0
20260509234857 0 0.0 0.0 0.00 0.00 0.00